WORLDVIEW-2 (WV-2)

Last updated on Mon Sep 21 2026 00:02:45 GMT+0000 (Coordinated Universal Time)

1 35946U 09055A 26263.56547691 .00000045 00000+0 29405-4 0 9990 2 35946 98.4714 335.7022 0003298 307.0329 53.0556 14.37921177889359
UTC large
Height (km)
Speed (km/s)
/
Latitude / Longitude
Inclination (degrees)
Orbital Period (minutes)
Azimuth
Elevation
Range (km)
Doppler Factor

Next 0 passes for location: London (51.5072 / 0.1276)

No passes found over London.
WORLDVIEW-2 (WV-2)